Powrót do katalogu

FREGAT DEB

AktywnyLEO
NORAD 45649·DEBRIS·🇷🇺 Russia

Wystrzelony Jul 18, 2011 z Baikonur Cosmodrome

Loading…

Następne Przeloty (najbliższe 24 godziny)

TLE

ŚwieżeSource: Space-Track

Epoka: Sep 13, 2026, 21:59 UTC

1 45649U 11037AR  26256.91633492  .00055154  00000-0  40812-1 0  9994
2 45649  51.5408  66.0809 0681241 191.7042 166.7286 13.18743039274769

Śledź FREGAT DEB w czasie rzeczywistym z AllMySat

Download on the App Store